Regional Weather Roundup
Issued by NWS Boston, MA

Home | Current Version | Previous Version | Text Only | Print | Product List | Glossary On
Versions: 1 2 3 4 5 6 7 8 9 10 11 12 13 14 15 16 17 18 19 20 21 22 23 24 25 26 27
000
ASUS41 KBOX 210310
RWRBOX

REGIONAL WEATHER ROUNDUP
NATIONAL WEATHER SERVICE BOSTON/NORTON MA
1100 PM EDT SUN MAY 20 2018

NOTE:  "FAIR" INDICATES FEW OR NO CLOUDS BELOW 12,000 FEET WITH NO
SIGNIFICANT WEATHER AND/OR OBSTRUCTIONS TO VISIBILITY.

MAZALL-210400-
EASTERN MASSACHUSETTS

CITY           SKY/WX    TMP DP  RH WIND       PRES   REMARKS
BOSTON         FAIR      68  54  60 N7        29.99R
BEVERLY        FAIR      60  53  77 NW5       29.98R
LAWRENCE       FAIR      65  54  67 NW6       30.01R
BEDFORD        FAIR      58  56  93 CALM      29.99R
BLUE HILL        N/A     62  56  80 NW9       29.99R
NORWOOD        MOCLDY    63  60  90 CALM      29.99R
MARSHFIELD     FAIR      66  57  72 VRB5      29.98R
PLYMOUTH       FAIR      63  60  90 N5        29.98R
TAUNTON        FAIR      62  61  96 CALM      29.98R
NEW BEDFORD    FAIR      65  65 100 CALM      29.97R
$$

MAZALL-210400-
CAPE COD AND THE ISLANDS

CITY           SKY/WX    TMP DP  RH WIND       PRES   REMARKS
FALMOUTH       MOCLDY    59  59 100 CALM      29.98R
HYANNIS        MOCLDY    64  62  93 NW7       29.96R
CHATHAM        CLOUDY    63  62  97 NW3       29.97R
PROVINCETOWN   MOCLDY    58  54  86 N8        29.98R
NANTUCKET      CLOUDY    60  60 100 NW9       29.96S
MARTHAS VNYRD  FAIR      61  61 100 W3        29.97R
$$

MAZALL-210400-
CENTRAL AND WESTERN MASSACHUSETTS

CITY           SKY/WX    TMP DP  RH WIND       PRES   REMARKS
WORCESTER      FAIR      62  54  74 NW8       30.03R
FITCHBURG      FAIR      61  58  90 CALM      30.02R
ORANGE         FAIR      57  56  96 CALM      30.04R
SPRINGFIELD    MOCLDY    63  54  72 NW9       30.01R
WESTFIELD      FAIR      63  56  78 NW9       30.04R
NORTH ADAMS    FAIR      59  53  80 W10       30.06R
PITTSFIELD     FAIR      58  52  80 W8        30.06S
$$

RIZALL-210400-
RHODE ISLAND

CITY           SKY/WX    TMP DP  RH WIND       PRES   REMARKS
PROVIDENCE     MOCLDY    68  60  75 NW8       29.99R
NEWPORT        FAIR      63  63 100 N5        29.98R
BLOCK ISLAND   FAIR      61  59  93 W8        30.01R
SMITHFIELD     CLOUDY    63  60  90 MISG      30.01R
WESTERLY       FAIR      68  63  84 VRB5      30.00R
$$

CTZALL-210400-
CONNECTICUT

CITY           SKY/WX    TMP DP  RH WIND       PRES   REMARKS
BRADLEY INTL   MOCLDY    64  55  72 NW15      30.03R
HARTFORD       FAIR      65  55  70 NW5       30.03R
BRIDGEPORT     FAIR      67  55  65 N6        30.04R
DANBURY        FAIR      63  55  75 NW5       30.07R
GROTON         FAIR      66  59  78 NW12G18   30.00R
NEW HAVEN      FAIR      68  56  65 NW7       30.03R
CHESTER        FAIR      64  57  77 NW10      30.03R
MERIDEN        FAIR      65  54  67 N5        30.04R
WILLIMANTIC    FAIR      65  58  78 NW5       30.02R
OXFORD         FAIR      62  53  72 NW10G20   30.06R
$$

MEZ002-015-021-024-NHZ003-005-008-011-012-014-VTZ005-008-210400-
NORTHERN NEW ENGLAND

CITY           SKY/WX    TMP DP  RH WIND       PRES   REMARKS
PORTLAND ME    FAIR      60  49  66 VRB7      29.98R
BANGOR ME      FAIR      57  43  59 NW9       29.96R
CONCORD NH     FAIR      60  52  74 NW7       30.02R
MANCHESTER NH  FAIR      65  53  65 W3        29.99R
NASHUA NH      FAIR      59  56  89 NW7       30.01R
PORTSMOUTH NH  PTCLDY    61  52  71 NW5       29.97R
JAFFREY NH     FAIR      60  54  80 N8G18     30.03S
KEENE NH       FAIR      54  53  97 CALM      30.04R
BURLINGTON VT  FAIR      57  45  64 W5        30.06S
MT. WASHINGTON FOG       34  34 100 NW36G53     N/A  VSB 1/16WCI  19
$$

NYZ052-076-210400-
EASTERN NEW YORK

CITY           SKY/WX    TMP DP  RH WIND       PRES   REMARKS
ALBANY         MOCLDY    61  51  70 W8        30.08R
NEW YORK CITY  FAIR      70  54  56 NW14      30.05R
$$

ANZALL-210400-
MARINE OBSERVATIONS

STATION/POSITION TIME  TEMP    WIND        PRES    VSBY  WAVE
                       AIR SEA DIR/SP/G                  HT/PER
                 (UTC) (F)     (DEG/KT/KT) (MB)    (MI)  (FT/S)
BOSTON BUOY      0250   59 54  320/  6/  8 1015.4R         1/ 7
BUZZARDS BAY     0200   61     270/ 17/ 17 1015.0R
NANTUCKET SOUND  0250   55 50  300/  6/  6 1014.8R         1/ 7
MASS BAY-STELLWA 0204   62 53              1013.2R         2/ 8
ISLE OF SHOALS   0200   66     290/ 13/ 14 1014.0R
S OF BLOCK IS    0243      49                N/A           6/ 8
$$

......................KEY.........................
  SKY/WX - SKY CONDITION/PRESENT WEATHER
  TMP    - TEMPERATURE IN FAHRENHEIT
  DWPT   - DEWPOINT IN FAHRENHEIT
  RH     - RELATIVE HUMIDITY IN PERCENT
  WIND   - DIRECTION AND SPEED IN MPH
  PRES   - MEAN SEA LEVEL PRESSURE IN INCHES OF HG
  WCI    - WIND CHILL INDEX
  VSB    - VISIBILITY IN MILES
  HX     - HEAT INDEX
  TC     - TEMPERATURE IN CELSIUS
  VRB    - VARIABLE WIND DIRECTION
  N/A    - NOT AVAILABLE




USA.gov is the U.S. government's official web portal to all federal, state and local government web resources and services.